KC8PTQ Weather Reports


time (UTC)temp
F
wind
direction
speed
knots
gust
knots
rain 1hr
in
rain 24hr
in
rain mn
in
humidity
%
barometer
mb
20260510192719 61 17 1.7 1.7 0.00 0.00 0.00 34 1019.3
20260510192214 61 355 0.0 0.9 0.00 0.00 0.00 40 1019.3
20260510191710 61 43 1.7 1.7 0.00 0.00 0.00 36 1019.3
20260510191207 60 32 0.9 1.7 0.00 0.00 0.00 36 1019.2
20260510190704 60 4 0.0 0.9 0.00 0.00 0.00 41 1019.6
20260510190202 60 3 1.7 1.7 0.00 0.00 0.00 41 1019.2
20260510185658 60 32 2.6 3.5 0.00 0.00 0.00 40 1019.6
20260510185156 60 24 1.7 1.7 0.00 0.00 0.00 36 1019.2
20260510184652 60 285 2.6 2.6 0.00 0.00 0.00 39 1019.1
20260510184148 61 359 0.0 0.9 0.00 0.00 0.00 37 1019.3
20260510183645 61 40 0.9 0.9 0.00 0.00 0.00 38 1019.1
20260510183139 61 291 2.6 2.6 0.00 0.00 0.00 41 1018.8
20260510182636 60 26 0.9 0.9 0.00 0.00 0.00 38 1019.1
20260510182132 60 287 1.7 2.6 0.00 0.00 0.00 39 1018.9
20260510181629 60 339 0.9 1.7 0.00 0.00 0.00 44 1018.7
20260510181126 61 33 4.3 5.2 0.00 0.00 0.00 41 1018.6
20260510180621 60 39 3.5 5.2 0.00 0.00 0.00 41 1018.6
20260510180120 60 18 0.9 1.7 0.00 0.00 0.00 44 1018.9
20260510175615 59 252 1.7 2.6 0.00 0.00 0.00 45 1018.6
20260510175111 59 58 2.6 3.5 0.00 0.00 0.00 42 1018.8
20260510174609 59 318 1.7 1.7 0.00 0.00 0.00 44 1018.8
20260510174106 60 45 1.7 2.6 0.00 0.00 0.00 46 1019.0
20260510173602 59 345 0.0 0.9 0.00 0.00 0.00 42 1019.1
20260510173058 60 306 0.9 0.9 0.00 0.00 0.00 45 1019.0
20260510172554 59 325 0.9 0.9 0.00 0.00 0.00 46 1019.1
20260510172050 59 25 0.0 0.9 0.00 0.00 0.00 45 1019.1
20260510171547 59 307 0.9 1.7 0.00 0.00 0.00 45 1019.2
20260510171044 58 54 2.6 3.5 0.00 0.00 0.00 44 1019.2
20260510170540 59 35 2.6 2.6 0.00 0.00 0.00 43 1019.2
20260510170038 60 11 0.9 0.9 0.00 0.00 0.00 47 1019.3
20260510165533 59 304 0.9 0.9 0.00 0.00 0.00 50 1019.3
20260510165029 58 40 0.9 1.7 0.00 0.00 0.00 47 1019.0
20260510164526 59 26 0.9 0.9 0.00 0.00 0.00 44 1019.1
20260510164022 59 19 0.9 1.7 0.00 0.00 0.00 44 1019.0
20260510163513 59 3 0.0 0.0 0.00 0.00 0.00 47 1019.0
20260510163009 59 3 0.9 0.9 0.00 0.00 0.00 45 1018.9
20260510162504 57 7 0.0 0.9 0.00 0.00 0.00 48 1018.6
20260510162001 58 336 0.0 0.0 0.00 0.00 0.00 47 1019.0
20260510161456 56 305 0.9 0.9 0.00 0.00 0.00 51 1019.0
20260510160953 56 43 3.5 3.5 0.00 0.00 0.00 46 1018.9
20260510160451 57 274 2.6 2.6 0.00 0.00 0.00 48 1018.9
20260510155948 56 28 1.7 1.7 0.00 0.00 0.00 52 1018.7
20260510155440 56 19 0.9 0.9 0.00 0.00 0.00 53 1018.7
20260510154937 57 33 3.5 5.2 0.00 0.00 0.00 55 1018.8
20260510154432 56 358 0.9 0.9 0.00 0.00 0.00 53 1018.8
20260510153926 56 19 1.7 2.6 0.00 0.00 0.00 52 1018.6
20260510153423 55 340 0.0 0.9 0.00 0.00 0.00 54 1018.8
20260510152919 55 23 0.0 0.9 0.00 0.00 0.00 58 1018.6
20260510152418 55 16 1.7 1.7 0.00 0.00 0.00 53 1018.6
20260510151913 55 337 0.9 0.9 0.00 0.00 0.00 58 1018.6
20260510151411 55 19 0.0 0.9 0.00 0.00 0.00 61 1018.6
20260510150907 55 36 1.7 1.7 0.00 0.00 0.00 57 1018.5
20260510150403 54 22 1.7 1.7 0.00 0.00 0.00 60 1018.5
20260510145859 55 39 1.7 3.5 0.00 0.00 0.00 62 1018.1
20260510145355 53 20 3.5 5.2 0.00 0.00 0.00 59 1018.0
20260510144852 53 336 3.5 5.2 0.00 0.00 0.00 58 1018.1
20260510144349 53 2 0.0 0.9 0.00 0.00 0.00 65 1018.1
20260510143849 53 38 2.6 2.6 0.00 0.00 0.00 62 1017.9
20260510143345 53 323 1.7 1.7 0.00 0.00 0.00 62 1017.9
20260510142842 53 303 3.5 3.5 0.00 0.00 0.00 63 1017.9
20260510142338 53 332 2.6 2.6 0.00 0.00 0.00 63 1017.9
20260510141835 53 351 4.3 6.1 0.00 0.00 0.00 63 1017.8
20260510141333 52 28 1.7 1.7 0.00 0.00 0.00 65 1017.8
20260510140831 51 37 5.2 5.2 0.00 0.00 0.00 68 1017.8
20260510140326 51 350 0.0 0.9 0.00 0.00 0.00 69 1017.8
20260510135825 51 32 1.7 1.7 0.00 0.00 0.00 68 1018.0
20260510135321 50 4 0.9 1.7 0.00 0.00 0.00 70 1017.9
20260510134819 51 27 0.9 0.9 0.00 0.00 0.00 71 1017.8
20260510134315 51 310 3.5 5.2 0.00 0.00 0.00 69 1017.9
20260510133811 51 26 0.0 0.9 0.00 0.00 0.00 74 1017.8
20260510133308 50 327 1.7 2.6 0.00 0.00 0.00 75 1017.8
20260510132803 50 12 0.9 1.7 0.00 0.00 0.00 79 1017.5
20260510132305 49 345 1.7 1.7 0.00 0.00 0.00 77 1017.5
20260510131758 49 6 0.0 0.0 0.00 0.00 0.00 79 1017.6
20260510131256 49 357 0.9 1.7 0.00 0.00 0.00 78 1017.3
20260510130752 49 341 0.0 0.9 0.00 0.00 0.00 81 1017.4
20260510130249 49 305 0.9 1.7 0.00 0.00 0.00 79 1017.4
20260510125740 49 19 0.0 0.0 0.00 0.00 0.00 85 1017.2
20260510125236 48 19 0.9 0.9 0.00 0.00 0.00 84 1017.2
20260510124733 48 325 0.0 0.9 0.00 0.00 0.00 86 1017.0
20260510124231 48 19 0.0 0.9 0.00 0.00 0.00 86 1017.0
20260510123726 48 19 0.0 0.0 0.00 0.00 0.00 89 1016.8
20260510123222 48 19 1.7 1.7 0.00 0.00 0.00 88 1016.6
20260510122718 48 326 0.0 0.0 0.00 0.00 0.00 88 1016.6
20260510122215 48 321 0.0 0.9 0.00 0.00 0.00 89 1016.6
20260510121711 48 21 0.9 1.7 0.00 0.00 0.00 89 1016.4
20260510121209 48 32 1.7 2.6 0.00 0.00 0.00 89 1016.5
20260510120706 48 20 0.0 0.0 0.00 0.00 0.00 90 1016.1
20260510120202 48 17 0.0 0.0 0.00 0.00 0.00 90 1016.1
20260510115658 48 339 0.0 0.0 0.00 0.00 0.00 91 1015.8
20260510115156 48 354 0.9 1.7 0.00 0.00 0.00 90 1015.8
20260510114651 48 326 0.0 0.0 0.00 0.00 0.00 89 1015.9
20260510114148 48 326 0.0 0.0 0.00 0.00 0.00 90 1015.8
20260510113643 48 325 0.0 0.0 0.00 0.00 0.00 90 1015.4
20260510113140 48 320 0.0 0.0 0.00 0.00 0.00 90 1015.5
20260510112637 48 326 0.0 0.0 0.00 0.00 0.00 90 1015.0
20260510112134 48 326 0.0 0.9 0.00 0.00 0.00 89 1015.1
20260510111630 48 355 0.0 0.9 0.00 0.00 0.00 89 1015.0
20260510111125 48 353 0.0 0.9 0.00 0.00 0.00 89 1015.0
20260510110616 48 338 0.0 0.0 0.00 0.00 0.00 89 1014.8
20260510110113 48 336 0.9 1.7 0.00 0.00 0.00 89 1014.9
20260510105609 47 325 0.0 0.0 0.00 0.00 0.00 89 1014.6
20260510105103 47 352 0.0 0.9 0.00 0.00 0.00 90 1014.4
20260510104601 47 352 0.0 0.0 0.00 0.00 0.00 91 1014.4
20260510104057 46 340 0.9 0.9 0.00 0.00 0.00 92 1014.4
20260510103554 46 324 0.0 0.0 0.00 0.00 0.00 94 1014.2
20260510103050 46 324 0.0 0.0 0.00 0.00 0.00 95 1014.0
20260510102546 46 324 0.0 0.0 0.00 0.00 0.00 96 1014.0
20260510102042 46 324 0.0 0.0 0.00 0.00 0.00 96 1013.9
20260510101540 46 324 0.0 0.0 0.00 0.00 0.00 96 1013.7
20260510101038 46 324 0.0 0.0 0.00 0.00 0.00 95 1013.7
20260510100533 46 324 0.0 0.0 0.00 0.00 0.00 94 1013.7
20260510100031 46 324 0.0 0.0 0.00 0.00 0.00 94 1013.7
20260510095527 46 324 0.0 0.0 0.00 0.00 0.00 93 1013.7
20260510095025 46 324 0.0 0.0 0.00 0.00 0.00 93 1013.5
20260510094520 45 324 0.0 0.0 0.00 0.00 0.00 92 1013.5
20260510094016 45 324 0.0 0.0 0.00 0.00 0.00 92 1013.7
20260510093512 46 324 0.0 0.0 0.00 0.00 0.00 93 1013.6
20260510093009 46 324 0.0 0.0 0.00 0.00 0.00 93 1013.3
20260510092506 46 324 0.0 0.0 0.00 0.00 0.00 93 1013.4
20260510092005 46 324 0.0 0.0 0.00 0.00 0.00 93 1013.6
20260510091503 46 324 0.0 0.0 0.00 0.00 0.00 92 1013.2
20260510090959 46 324 0.0 0.0 0.00 0.00 0.00 92 1013.0
20260510090457 46 324 0.0 0.0 0.00 0.00 0.00 92 1013.2
20260510085951 46 324 0.0 0.0 0.00 0.00 0.00 91 1012.8
20260510085447 46 324 0.0 0.0 0.00 0.00 0.00 91 1012.7
20260510084942 47 324 0.0 0.0 0.00 0.00 0.00 91 1012.6
20260510084440 47 324 0.0 0.0 0.00 0.00 0.00 91 1012.6
20260510083936 47 325 0.0 0.0 0.00 0.00 0.00 90 1012.2
20260510083433 47 325 0.0 0.0 0.00 0.00 0.00 89 1012.4
20260510082928 47 325 0.0 0.0 0.00 0.00 0.00 89 1012.3
20260510082426 47 325 0.0 0.0 0.00 0.00 0.00 89 1012.1
20260510081925 48 325 0.0 0.0 0.00 0.00 0.00 89 1012.0
20260510081421 48 325 0.0 0.0 0.00 0.00 0.00 88 1012.0
20260510080918 48 325 0.0 0.0 0.00 0.00 0.00 89 1012.0
20260510080417 48 325 0.0 0.0 0.00 0.00 0.00 89 1012.1
20260510075914 49 325 0.0 0.0 0.00 0.00 0.00 89 1012.2
20260510075412 49 355 0.9 0.9 0.00 0.00 0.00 88 1011.9
20260510074908 49 356 0.0 0.9 0.00 0.00 0.00 88 1012.0
20260510074405 49 17 0.0 0.0 0.00 0.00 0.00 89 1011.9
20260510073902 50 324 0.9 0.9 0.00 0.00 0.00 88 1011.7
20260510073357 50 6 0.0 0.0 0.00 0.00 0.00 89 1011.7
20260510072853 50 337 0.9 0.9 0.00 0.00 0.00 96 1011.8
20260510072351 51 320 0.9 1.7 0.00 0.00 0.00 98 1011.6
20260510071846 52 324 0.0 0.0 0.00 0.00 0.00 99 1011.6
20260510071343 52 304 0.9 0.9 0.00 0.00 0.00 99 1011.6
20260510070842 52 338 0.0 0.0 0.00 0.00 0.00 99 1011.6
20260510070339 52 319 0.0 0.0 0.00 0.00 0.00 99 1011.4
20260510065839 52 320 0.0 0.0 0.00 0.00 0.00 99 1011.2
20260510065336 52 327 0.0 0.0 0.00 0.00 0.00 99 1011.1
20260510064833 52 327 0.0 0.0 0.00 0.00 0.00 99 1011.1
20260510064331 53 340 0.0 0.0 0.00 0.00 0.00 99 1010.9
20260510063827 53 340 0.0 0.0 0.00 0.00 0.00 99 1010.9
20260510063323 53 341 0.9 0.9 0.00 0.00 0.00 99 1010.7
20260510062820 53 339 0.0 0.0 0.00 0.00 0.00 99 1010.7
20260510062315 53 339 0.0 0.0 0.00 0.00 0.00 99 1010.5
20260510061811 53 339 0.0 0.0 0.00 0.00 0.00 99 1010.5
20260510061308 53 339 0.0 0.0 0.00 0.00 0.00 99 1010.5
20260510060804 53 339 0.0 0.0 0.00 0.00 0.00 99 1010.7
20260510060301 53 340 0.0 0.0 0.00 0.00 0.00 99 1010.4
20260510055758 53 339 0.0 0.0 0.00 0.00 0.00 99 1010.4
20260510055256 53 339 0.0 0.0 0.00 0.00 0.00 99 1010.1
20260510054755 53 339 0.0 0.0 0.00 0.00 0.00 99 1010.4
20260510054252 53 339 0.0 0.0 0.00 0.00 0.00 99 1010.3
20260510053752 53 307 0.0 0.0 0.00 0.00 0.00 99 1010.2
20260510053247 53 306 0.0 0.0 0.00 0.00 0.00 99 1010.1
20260510052743 53 306 0.0 0.0 0.00 0.00 0.00 99 1009.9
20260510052240 53 306 0.0 0.0 0.00 0.00 0.00 99 1009.9
20260510051735 53 262 0.0 0.0 0.00 0.00 0.00 99 1009.7
20260510051233 53 262 0.0 0.0 0.00 0.00 0.00 99 1009.9
20260510050729 53 262 0.0 0.0 0.00 0.00 0.00 99 1009.7
20260510050227 53 262 0.0 0.0 0.00 0.00 0.00 99 1009.9
20260510045723 53 262 0.0 0.0 0.00 0.00 0.00 99 1009.7
20260510045220 53 262 0.9 0.9 0.00 0.00 0.00 99 1009.5
20260510044716 53 265 0.9 0.9 0.00 0.00 0.00 99 1009.8
20260510044215 53 265 0.0 0.0 0.00 0.00 0.00 99 1009.9
20260510043709 53 265 0.0 0.0 0.00 0.00 0.00 99 1009.6
20260510043207 53 265 0.0 0.0 0.00 0.00 0.00 99 1009.6
20260510042703 53 265 0.0 0.0 0.00 0.00 0.00 99 1009.6
20260510042200 53 265 0.0 0.0 0.00 0.00 0.00 99 1009.4
20260510041657 53 265 0.0 0.0 0.00 0.00 0.00 99 1009.5
20260510041154 53 265 0.0 0.0 0.00 0.00 0.00 99 1009.4
20260510040651 54 265 0.0 0.0 0.00 0.00 0.00 99 1009.2
20260510040148 54 265 0.0 0.0 0.00 0.00 0.00 99 1009.3
20260510035643 54 265 0.0 0.0 0.00 0.47 0.47 99 1009.3
20260510035138 54 265 0.0 0.0 0.00 0.47 0.47 99 1009.4
20260510034635 54 270 0.0 0.0 0.00 0.47 0.47 99 1009.4
20260510034132 54 270 0.0 0.0 0.00 0.47 0.47 99 1009.2
20260510033629 54 270 0.0 0.0 0.00 0.47 0.47 99 1009.5
20260510033127 54 269 0.0 0.0 0.00 0.47 0.47 99 1009.2
20260510032623 54 313 0.0 0.0 0.00 0.47 0.47 99 1009.2
20260510032118 54 313 0.0 0.9 0.00 0.47 0.47 99 1009.3
20260510031613 54 313 0.0 0.0 0.00 0.47 0.47 99 1009.2
20260510031110 54 313 0.0 0.0 0.05 0.47 0.47 99 1009.3
20260510030605 54 313 0.9 0.9 0.05 0.47 0.47 99 1009.1
20260510030103 54 313 0.0 0.9 0.12 0.46 0.46 99 1009.3
20260510025600 55 313 0.0 0.0 0.12 0.46 0.46 99 1009.6
20260510025057 55 332 0.0 0.0 0.00 0.44 0.44 99 1009.3
20260510024554 55 331 0.0 0.0 0.00 0.44 0.44 99 1009.3
20260510024050 54 331 0.0 0.0 0.07 0.44 0.44 99 1009.5
20260510023546 54 331 0.0 0.0 0.07 0.44 0.44 99 1009.2
20260510023044 55 153 0.9 0.9 0.00 0.43 0.43 99 1009.7
20260510022543 54 330 0.0 0.0 0.00 0.43 0.43 99 1009.3
20260510022037 54 315 0.0 0.9 0.00 0.43 0.43 99 1009.2
20260510021534 54 307 0.0 0.0 0.00 0.43 0.43 99 1009.0
20260510021032 54 305 0.0 0.0 0.00 0.43 0.43 99 1009.2
20260510020526 54 318 0.0 0.0 0.00 0.43 0.43 99 1009.0
20260510020022 54 318 0.0 0.0 0.00 0.43 0.43 99 1009.0
20260510015518 54 319 0.0 0.0 0.00 0.43 0.43 99 1008.9
20260510015014 54 319 0.0 0.0 0.00 0.43 0.43 99 1008.9
20260510014511 54 319 0.0 0.0 0.00 0.43 0.43 99 1008.7
20260510014008 54 319 0.0 0.0 0.00 0.43 0.43 99 1008.6
20260510013502 54 319 0.0 0.0 0.00 0.43 0.43 99 1008.6
20260510012958 54 319 0.0 0.0 0.00 0.43 0.43 99 1008.5
20260510012447 54 318 0.0 0.0 0.00 0.43 0.43 99 1008.3
20260510011942 55 318 0.0 0.0 0.00 0.43 0.43 99 1008.3
20260510011438 55 321 0.0 0.0 0.00 0.43 0.43 98 1008.2
20260510010934 55 321 0.0 0.0 0.00 0.43 0.43 98 1008.0
20260510010431 55 321 0.0 0.0 0.00 0.43 0.43 98 1008.1
20260510005928 55 321 0.0 0.0 0.00 0.43 0.43 98 1008.1
20260510005423 55 330 0.0 0.0 0.00 0.43 0.43 97 1008.0
20260510004921 56 299 0.0 0.0 0.00 0.43 0.43 97 1008.1
20260510004418 56 255 0.0 0.0 0.00 0.43 0.43 96 1007.9
20260510003916 55 255 0.0 0.9 0.00 0.43 0.43 96 1007.8
20260510003413 55 299 0.0 0.0 0.00 0.43 0.43 96 1008.1
20260510002912 55 177 0.9 1.7 0.00 0.43 0.43 97 1008.2
20260510002409 55 282 0.0 0.0 0.00 0.43 0.43 97 1008.4
20260510001906 55 297 0.0 0.0 0.00 0.43 0.43 97 1008.2
20260510001403 55 295 0.0 0.0 0.07 0.43 0.43 97 1008.2
20260510000900 55 294 0.9 0.9 0.07 0.43 0.43 97 1008.4
20260510000357 55 297 0.9 0.9 0.00 0.42 0.42 97 1008.2
20260509235853 55 242 0.9 0.9 0.05 0.42 0.42 97 1008.3
20260509235350 55 198 0.0 0.0 0.17 0.42 0.42 97 1008.5
20260509234846 55 273 0.0 0.9 0.42 0.41 0.41 96 1008.4
20260509234343 56 307 0.9 0.9 0.47 0.40 0.40 95 1008.3
20260509233842 57 3 0.9 0.9 0.19 0.35 0.35 91 1008.5
20260509233339 59 291 2.6 3.5 0.00 0.32 0.32 83 1008.1
20260509232834 60 309 1.7 2.6 0.00 0.32 0.32 79 1007.8
20260509232332 62 265 1.7 1.7 0.00 0.32 0.32 74 1007.8
20260509231828 66 30 1.7 1.7 0.00 0.32 0.32 67 1007.5
20260509231325 67 287 0.9 0.9 0.00 0.32 0.32 61 1006.5
20260509230823 67 323 0.0 0.9 0.00 0.32 0.32 61 1006.2
20260509230320 68 233 2.6 2.6 0.00 0.32 0.32 57 1006.2
20260509225814 68 313 0.0 0.9 0.00 0.32 0.32 59 1006.2
20260509225312 68 210 1.7 3.5 0.00 0.32 0.32 57 1006.1
20260509224808 68 258 0.9 0.9 0.00 0.32 0.32 57 1006.0
20260509224304 68 198 5.2 7.0 0.00 0.32 0.32 57 1005.9
20260509223801 68 214 2.6 3.5 0.00 0.32 0.32 57 1005.8
20260509223258 69 270 0.0 0.9 0.00 0.32 0.32 57 1005.9
20260509222754 69 240 1.7 2.6 0.00 0.32 0.32 53 1005.8
20260509222250 69 298 0.0 0.0 0.00 0.32 0.32 54 1006.0
20260509221746 69 178 2.6 3.5 0.00 0.32 0.32 53 1005.8
20260509221243 70 184 2.6 3.5 0.00 0.32 0.32 53 1005.7
20260509220738 70 232 1.7 2.6 0.00 0.32 0.32 55 1006.0
20260509220235 70 194 2.6 3.5 0.00 0.32 0.32 55 1005.9
20260509215730 70 231 3.5 3.5 0.00 0.32 0.32 54 1006.1
20260509215227 70 164 5.2 7.0 0.00 0.32 0.32 54 1005.9
20260509214725 70 173 5.2 6.1 0.00 0.32 0.32 55 1006.0
20260509214221 70 241 1.7 2.6 0.00 0.32 0.32 56 1005.8
20260509213718 70 316 3.5 5.2 0.00 0.32 0.32 53 1005.8
20260509213213 71 232 4.3 7.0 0.00 0.32 0.32 53 1005.9
20260509212712 71 214 2.6 2.6 0.00 0.32 0.32 54 1005.6
20260509212209 71 200 5.2 8.7 0.00 0.32 0.32 53 1005.9
20260509211705 71 208 4.3 5.2 0.00 0.32 0.32 52 1005.9
20260509211202 70 215 1.7 2.6 0.00 0.32 0.32 53 1006.1
20260509210658 70 209 2.6 3.5 0.00 0.32 0.32 53 1006.1
20260509210155 70 257 5.2 7.8 0.00 0.32 0.32 55 1006.0
20260509205650 70 194 2.6 2.6 0.00 0.32 0.32 60 1006.4
20260509205149 70 190 0.0 0.9 0.00 0.32 0.32 57 1006.1
20260509204647 69 201 2.6 2.6 0.00 0.32 0.32 55 1006.4
20260509204143 69 248 5.2 12.2 0.00 0.32 0.32 58 1006.5
20260509203639 69 273 1.7 2.6 0.00 0.32 0.32 58 1006.6
20260509203138 69 207 2.6 3.5 0.00 0.32 0.32 58 1006.5
20260509202637 69 225 2.6 2.6 0.00 0.32 0.32 62 1006.8
20260509202133 69 298 2.6 2.6 0.00 0.32 0.32 60 1006.6
20260509201628 69 267 0.9 1.7 0.00 0.32 0.32 59 1006.8
20260509201125 68 218 5.2 7.0 0.00 0.32 0.32 59 1007.1
20260509200621 69 211 4.3 6.1 0.00 0.32 0.32 60 1007.1
20260509200111 68 258 1.7 1.7 0.00 0.32 0.32 60 1007.4
20260509195607 68 136 4.3 6.1 0.00 0.32 0.32 62 1007.3
20260509195102 69 211 4.3 5.2 0.00 0.32 0.32 59 1007.5
20260509194601 69 221 1.7 2.6 0.00 0.32 0.32 62 1007.6
20260509194100 68 157 3.5 5.2 0.00 0.32 0.32 62 1007.4
20260509193555 68 143 1.7 1.7 0.00 0.32 0.32 60 1007.4
20260509193051 68 213 0.9 1.7 0.00 0.32 0.32 62 1007.5